Delta, CO

2:25 AM MDT on June 29, 2017 (GMT -0600)
Delta

Weather History for KAJZ - May, 2013

Change the Weather History Date:

Sunday, May 5, 2013

  Actual Average (KMTJ) Record (KMTJ)
Temperature  
Mean Temperature 66 °F -  
Max Temperature 76 °F 68 °F 86 °F (2000)
Min Temperature 55 °F 38 °F 30 °F (1999)
Growing Degree Days 16 (Base 50)    
Moisture  
Dew Point 22 °F    
Average Humidity 20    
Maximum Humidity 30    
Minimum Humidity 10    
Precipitation  
Precipitation 0.00 in - - ()
Sea Level Pressure  
Sea Level Pressure 29.96 in    
Wind  
Wind Speed 8 mph (East)    
Max Wind Speed 20 mph    
Max Gust Speed 43 mph    
Visibility 10 miles    
Events      
Averages and records for this station are not official NWS values.
T = Trace of Precipitation, MM = Missing Value Source: NWS Daily Summary

Daily Weather History Graph

Daily Weather History Graph

Search for Another Location

Airport or City:

Trip Planner

Search our weather history database for the weather conditions in past years. The results will help you decide how hot, cold, wet, or windy it might be!

Date:

Astronomy

May. 05, 2013 Rise Set
Actual Time 6:09 AM MDT 8:08 PM MDT
Civil Twilight 5:40 AM MDT 8:37 PM MDT
Nautical Twilight 5:05 AM MDT 9:13 PM MDT
Astronomical Twilight 4:27 AM MDT 9:51 PM MDT
Moon 3:39 AM MDT (5/5) 4:13 PM MDT (5/5)
Length of Visible Light 14h 57m
Length of Day
13h 59m
Waning Crescent, 17% of the Moon is Illuminated
May 5
Waning Crescent
May 9
New
May 17
First Quarter
May 24
Full
May 31
Last Quarter

Hourly Weather History & Observations

Time (MDT) Temp. Dew Point Humidity Pressure Visibility Wind Dir Wind Speed Gust Speed Precip Events Conditions
12:15 AM 62.4 °F 23.7 °F 23% 29.92 in 10.0 mi NE 11.5 mph - N/A   Scattered Clouds
12:35 AM 62.6 °F 22.6 °F 22% 29.94 in 10.0 mi NE 11.5 mph 18.4 mph N/A   Scattered Clouds
12:55 AM 63.0 °F 25.3 °F 24% 29.94 in 10.0 mi ENE 15.0 mph 21.9 mph N/A   Clear
1:15 AM 63.5 °F 25.2 °F 23% 29.93 in 10.0 mi East 17.3 mph 24.2 mph N/A   Scattered Clouds
1:35 AM 62.4 °F 24.8 °F 24% 29.92 in 10.0 mi NE 11.5 mph 17.3 mph N/A   Scattered Clouds
1:55 AM 61.3 °F 25.9 °F 26% 29.95 in 10.0 mi Calm Calm - N/A   Scattered Clouds
2:15 AM 59.9 °F 24.1 °F 25% 29.93 in 10.0 mi NE 9.2 mph - N/A   Scattered Clouds
2:35 AM 59.9 °F 23.9 °F 25% 29.94 in 10.0 mi ENE 5.8 mph - N/A   Clear
2:55 AM 58.8 °F 23.0 °F 25% 29.94 in 10.0 mi ENE 8.1 mph - N/A   Scattered Clouds
3:15 AM 59.9 °F 22.8 °F 24% 29.94 in 10.0 mi NE 8.1 mph - N/A   Scattered Clouds
3:35 AM 57.6 °F 25.7 °F 29% 29.94 in 10.0 mi NNE 6.9 mph - N/A   Scattered Clouds
3:55 AM 59.5 °F 23.7 °F 25% 29.94 in 10.0 mi NE 9.2 mph - N/A   Clear
4:15 AM 59.4 °F 23.7 °F 25% 29.94 in 10.0 mi NE 8.1 mph - N/A   Clear
4:55 AM 58.5 °F 24.3 °F 27% 29.94 in 10.0 mi NNE 10.4 mph - N/A   Clear
5:15 AM 57.7 °F 24.6 °F 28% 29.94 in 10.0 mi NNE 10.4 mph - N/A   Clear
5:35 AM 58.6 °F 24.4 °F 27% 29.95 in 10.0 mi NNE 9.2 mph - N/A   Clear
5:55 AM 58.6 °F 23.5 °F 26% 29.95 in 10.0 mi NE 10.4 mph - N/A   Clear
6:15 AM 58.5 °F 23.4 °F 26% 29.95 in 10.0 mi NE 8.1 mph - N/A   Clear
6:35 AM 57.4 °F 23.5 °F 27% 29.95 in 10.0 mi NE 6.9 mph - N/A   Clear
6:55 AM 56.7 °F 23.5 °F 28% 29.96 in 10.0 mi ENE 6.9 mph - N/A   Clear
7:15 AM 55.4 °F 24.4 °F 30% 29.97 in 10.0 mi ENE 8.1 mph - N/A   Clear
7:35 AM 57.6 °F 24.6 °F 28% 29.98 in 10.0 mi ENE 6.9 mph - N/A   Clear
7:55 AM 59.0 °F 25.7 °F 28% 29.99 in 10.0 mi East 5.8 mph - N/A   Clear
8:15 AM 60.3 °F 25.7 °F 27% 30.00 in 10.0 mi East 5.8 mph - N/A   Clear
8:35 AM 60.8 °F 26.2 °F 27% 30.01 in 10.0 mi ESE 3.5 mph - N/A   Clear
8:55 AM 61.7 °F 25.9 °F 26% 30.01 in 10.0 mi ENE 3.5 mph - N/A   Clear
9:15 AM 63.1 °F 25.0 °F 23% 30.01 in 10.0 mi NE 4.6 mph - N/A   Clear
9:35 AM 64.4 °F 24.1 °F 22% 30.01 in 10.0 mi ENE 3.5 mph - N/A   Clear
9:55 AM 66.0 °F 22.1 °F 19% 30.01 in 10.0 mi NE 5.8 mph - N/A   Clear
10:15 AM 67.1 °F 21.6 °F 18% 30.01 in 10.0 mi ENE 5.8 mph - N/A   Clear
10:35 AM 67.8 °F 19.9 °F 16% 30.00 in 10.0 mi East 3.5 mph - N/A   Clear
10:55 AM 69.6 °F 18.9 °F 15% 30.00 in 10.0 mi East 4.6 mph - N/A   Clear
11:15 AM 69.8 °F 17.8 °F 14% 30.00 in 10.0 mi East 3.5 mph - N/A   Clear
11:35 AM 69.4 °F 14.7 °F 12% 30.01 in 10.0 mi Calm Calm - N/A   Clear
12:15 PM 70.3 °F 16.3 °F 13% 30.00 in 10.0 mi South 3.5 mph - N/A   Clear
12:35 PM 70.7 °F 18.1 °F 14% 29.99 in 10.0 mi Calm Calm - N/A   Clear
12:55 PM 71.8 °F 17.4 °F 13% 29.98 in 10.0 mi North 3.5 mph - N/A   Clear
1:15 PM 72.0 °F 16.7 °F 12% 29.98 in 10.0 mi Calm Calm - N/A   Scattered Clouds
1:35 PM 73.4 °F 17.4 °F 12% 29.98 in 10.0 mi South 12.7 mph 18.4 mph N/A   Scattered Clouds
1:55 PM 74.8 °F 18.0 °F 12% 29.97 in 10.0 mi SSW 18.4 mph 27.6 mph N/A   Scattered Clouds
2:35 PM 74.3 °F 18.0 °F 12% 29.96 in 10.0 mi South 8.1 mph 18.4 mph N/A   Clear
2:55 PM 75.6 °F 18.7 °F 12% 29.96 in 10.0 mi South 17.3 mph 26.5 mph N/A   Clear
3:15 PM 76.3 °F 18.3 °F 11% 29.95 in 10.0 mi SSW 9.2 mph 24.2 mph N/A   Clear
3:35 PM 74.8 °F 19.9 °F 13% 29.95 in 10.0 mi SSE 15.0 mph 25.3 mph N/A   Scattered Clouds
3:55 PM 74.7 °F 21.9 °F 14% 29.94 in 10.0 mi SE 11.5 mph 17.3 mph N/A   Mostly Cloudy
4:15 PM 76.6 °F 18.5 °F 11% 29.94 in 10.0 mi SSW 10.4 mph 16.1 mph N/A   Mostly Cloudy
4:35 PM 76.1 °F 16.2 °F 10% 29.93 in 10.0 mi SW 19.6 mph 42.6 mph N/A   Scattered Clouds
4:55 PM 75.4 °F 16.9 °F 11% 29.93 in 10.0 mi SSW 12.7 mph 21.9 mph N/A   Clear
5:15 PM 75.4 °F 18.0 °F 11% 29.92 in 10.0 mi SSW 13.8 mph - N/A   Clear
5:35 PM 76.5 °F 18.3 °F 11% 29.92 in 10.0 mi SW 11.5 mph 17.3 mph N/A   Clear
5:55 PM 74.8 °F 19.8 °F 13% 29.92 in 10.0 mi South 8.1 mph - N/A   Clear
6:15 PM 73.9 °F 20.3 °F 13% 29.91 in 10.0 mi SE 8.1 mph - N/A   Clear
6:35 PM 72.9 °F 20.8 °F 14% 29.92 in 10.0 mi SE 9.2 mph - N/A   Clear
6:55 PM 72.3 °F 21.2 °F 15% 29.92 in 10.0 mi SE 8.1 mph - N/A   Scattered Clouds
7:15 PM 71.8 °F 20.3 °F 14% 29.92 in 10.0 mi South 3.5 mph - N/A   Scattered Clouds
7:35 PM 71.2 °F 20.3 °F 15% 29.92 in 10.0 mi South 3.5 mph - N/A   Scattered Clouds
7:55 PM 68.7 °F 22.1 °F 17% 29.93 in 10.0 mi SE 3.5 mph - N/A   Clear
8:35 PM 67.1 °F 24.8 °F 20% 29.94 in 10.0 mi SSE 8.1 mph 16.1 mph N/A   Clear
8:55 PM 66.2 °F 23.5 °F 20% 29.95 in 10.0 mi SSE 8.1 mph - N/A   Clear
9:15 PM 65.5 °F 23.9 °F 21% 29.96 in 10.0 mi SSE 10.4 mph - N/A   Clear
9:35 PM 64.6 °F 25.2 °F 22% 29.97 in 10.0 mi SSE 5.8 mph - N/A   Clear
9:55 PM 63.1 °F 26.2 °F 25% 29.98 in 10.0 mi Calm Calm - N/A   Clear
10:15 PM 63.3 °F 26.2 °F 25% 29.98 in 10.0 mi Calm Calm - N/A   Clear
10:35 PM 63.7 °F 25.3 °F 23% 29.99 in 10.0 mi Calm Calm - N/A   Scattered Clouds
10:55 PM 62.6 °F 26.2 °F 25% 29.99 in 10.0 mi Calm Calm - N/A   Scattered Clouds
11:15 PM 63.3 °F 27.0 °F 25% 29.99 in 10.0 mi Calm Calm - N/A   Mostly Cloudy
11:35 PM 63.5 °F 27.3 °F 25% 29.99 in 10.0 mi West 3.5 mph - N/A   Overcast
11:55 PM 63.9 °F 25.5 °F 23% 30.00 in 10.0 mi WSW 4.6 mph - N/A   Overcast